Volver al catálogo

METEOSAT 7

ActivoMeteoGEO
NORAD 24932·PAYLOAD·🇪🇺 EU

Lanzado Sep 2, 1997 desde Guiana Space Centre

Loading…

TLE

ActualizadoSource: Space-Track

Época: Sep 14, 2026, 14:19 UTC

1 24932U 97049B   26257.59706377 -.00000235  00000-0  00000+0 0  9995
2 24932  13.7873  14.3213 0007054  62.8372 293.3815  0.98311997105621

Sigue METEOSAT 7 en tiempo real con AllMySat

Download on the App Store